Regional Weather Roundup
Issued by NWS

Home | Current Version | Previous Version | Graphics & Text | Print | Product List | Glossary Off
Versions: 1 2 3 4 5 6 7 8 9 10 11 12 13 14 15 16 17 18 19 20 21 22 23 24 25 26 27 28 29 30 31 32 33 34 35 36 37 38 39 40 41 42 43 44 45 46 47 48 49 50

000
ASUS43 KOAX 270610
RWRNE

WEATHER ROUNDUP FOR NEBRASKA
NATIONAL WEATHER SERVICE OMAHA NE
100 AM CDT THU JUL 27 2017

NOTES: SATELLITE DATA IS BEING USED TO AUGMENT CLOUD COVER ABOVE
       12000 FEET.
       "FAIR" INDICATES FEW OR NO CLOUDS BELOW 12,000 FEET WITH NO
       SIGNIFICANT WEATHER AND/OR OBSTRUCTIONS TO VISIBILITY.


NEZ001>004-019>022-054>056-270700-
NEBRASKA PANHANDLE

CITY           SKY/WX    TMP DP  RH WIND       PRES   REMARKS
SCOTTSBLUFF    CLOUDY    68  61  78 E6        30.20R
6HR MIN TEMP:  68; 6HR MAX TEMP:  82;

ALLIANCE       CLOUDY    70  63  78 E9        30.21R
6HR MIN TEMP:  70; 6HR MAX TEMP:  81;

CHADRON        CLOUDY    75  58  55 SE7       30.17R
6HR MIN TEMP:  74; 6HR MAX TEMP:  83;

GORDON         FAIR      66  59  79 E5        30.21R
6HR MIN TEMP:  65; 6HR MAX TEMP:  81;

KIMBALL        CLOUDY    68  62  81 SE6       30.27S
SIDNEY         PTCLDY    64  60  87 S7        30.25R
6HR MIN TEMP:  64; 6HR MAX TEMP:  82;

$$

NEZ057>060-069>072-079>082-270700-
SOUTHWEST NEBRASKA

CITY           SKY/WX    TMP DP  RH WIND       PRES   REMARKS
NORTH PLATTE   PTCLDY    69  66  90 NE3       30.15R
6HR MIN TEMP:  69; 6HR MAX TEMP:  82;

IMPERIAL       PTCLDY    67  62  84 N3        30.17R
6HR MIN TEMP:  67; 6HR MAX TEMP:  81;

LEXINGTON      CLOUDY    72  69  90 NE6       30.11F
MCCOOK         CLOUDY    73  69  87 N5        30.12R
6HR MIN TEMP:  70; 6HR MAX TEMP:  80;

OGALLALA       CLOUDY    69  67  94 CALM      30.18R FOG
$$

NEZ005>010-023>029-035>040-094-270700-
NORTH CENTRAL NEBRASKA

CITY           SKY/WX    TMP DP  RH WIND       PRES   REMARKS
VALENTINE      CLEAR     69  56  62 E5        30.16S
6HR MIN TEMP:  69; 6HR MAX TEMP:  87;

AINSWORTH      CLEAR     65  62  90 CALM      30.17R
BROKEN BOW     CLOUDY    70  65  84 NE7       30.13R
6HR MIN TEMP:  70; 6HR MAX TEMP:  80; 6HR PCP:  0.14;

O`NEILL        CLEAR     63  62  95 N3        30.14R
ORD            CLEAR     68  61  78 N6        30.10R
6HR MIN TEMP:  68; 6HR MAX TEMP:  81; 6HR PCP:  0.01;

THEDFORD       CLEAR     67  64  91 E3        30.17S
$$

NEZ041-046>049-061>064-073>077-083>087-270700-
SOUTH CENTRAL NEBRASKA

CITY           SKY/WX    TMP DP  RH WIND       PRES   REMARKS
GRAND ISLAND   CLEAR     71  71 100 N6        30.08R
6HR MIN TEMP:  71; 6HR MAX TEMP:  78;

AURORA         CLEAR     69  69 100 N3        30.07R FOG
HASTINGS       CLEAR     71  69  93 NE6       30.07S FOG
6HR MIN TEMP:  71; 6HR MAX TEMP:  77; 6HR PCP: TRACE;

HEBRON         MOCLDY    74  72  93 N7        30.04R
HOLDREGE       PTCLDY    69  68  95 N6        30.09S FOG
KEARNEY        CLEAR     71  69  93 N7        30.09S
YORK           PTCLDY    70  70 100 CALM      30.06S FOG
$$

NEZ011>018-030>034-042>045-270700-
NORTHEAST NEBRASKA

CITY           SKY/WX    TMP DP  RH WIND       PRES   REMARKS
NORFOLK        CLEAR     71  61  70 NE10      30.08S
6HR MIN TEMP:  71; 6HR MAX TEMP:  82; 6HR PCP: TRACE;

ALBION         CLEAR     71  66  85 NE7       30.10R
BLAIR          RAIN      73  72  97 N3        30.03S
COLUMBUS       MOCLDY    72  70  94 NE8       30.06S
FREMONT        CLOUDY    73  73  99 CALM      30.04S
TEKAMAH        PTCLDY    73  69  87 N9        30.03R
6HR MIN TEMP:  73; 6HR MAX TEMP:  79;

WAYNE          CLEAR     66  65  99 CALM      30.08S
$$

NEZ050>053-065>068-078-088>093-270700-
SOUTHEAST NEBRASKA

CITY           SKY/WX    TMP DP  RH WIND       PRES   REMARKS
LINCOLN        FOG       72  71  97 N5        30.03S VSB 1/4
6HR MIN TEMP:  72; 6HR MAX TEMP:  77;

OMAHA EPPLEY   FOG       72  70  93 N5        30.02S VSB 1/4
6HR MIN TEMP:  71; 6HR MAX TEMP:  77; 6HR PCP: TRACE;

BEATRICE       CLOUDY    75  74  96 NE6       30.02S FOG
FALLS CITY     CLOUDY    74  73  97 NW5       29.97S FOG
6HR MIN TEMP:  73; 6HR MAX TEMP:  80; 6HR PCP:  0.04;

NEBRASKA CITY  CLOUDY    75  75 100 NE7       30.00F FOG
PLATTSMOUTH    FOG       73  72  97 N3        30.02S VSB 1/4
$$

NEZ044-045-051>053-067-270700-
OMAHA AREA

CITY           SKY/WX    TMP DP  RH WIND       PRES   REMARKS
OMAHA EPPLEY   FOG       72  70  93 N5        30.02S VSB 1/4
6HR MIN TEMP:  71; 6HR MAX TEMP:  77; 6HR PCP: TRACE;

BLAIR          RAIN      73  72  97 N3        30.03S
FREMONT        CLOUDY    73  73  99 CALM      30.04S
MILLARD        FOG       73  73  97 CALM      30.02S VSB 1
OFFUTT AFB     CLEAR     71  71  98 CALM      30.01S
PLATTSMOUTH    FOG       73  72  97 N3        30.02S VSB 1/4
WAHOO          MOCLDY    71  70  97 NW6       30.04R FOG
$$




USA.gov is the U.S. government's official web portal to all federal, state and local government web resources and services.